Regional Weather Roundup
Issued by NWS

Home | Current Version | Previous Version | Text Only | Print | Product List | Glossary On
Versions: 1 2 3 4 5 6 7 8 9 10 11 12 13 14 15 16 17 18 19 20 21 22 23 24 25 26 27 28 29 30 31 32 33 34 35 36 37 38 39 40 41 42 43 44 45 46 47 48 49 50
000
ASUS44 KFWD 301401
RWRTX
NORTH TEXAS HOURLY WEATHER ROUNDUP
NATIONAL WEATHER SERVICE FORT WORTH TX
800 AM CST FRI JAN 30 2015

NOTE: "FAIR" INDICATES FEW OR NO CLOUDS BELOW 12,000 FEET WITH NO
SIGNIFICANT WEATHER AND/OR OBSTRUCTIONS TO VISIBILITY.

TXZ118-119-301500-
DALLAS/FORT WORTH METROPLEX

CITY           SKY/WX    TMP DP  RH WIND       PRES   REMARKS
DFW AIRPORT    MOCLDY    41  31  67 NE12      30.48R WCI  34
DALLAS LOVE    MOCLDY    43  30  60 NE10      30.49S WCI  37
FTW MEACHAM    MOCLDY    42  31  64 NE8       30.49R WCI  37
DAL-EXECUTIVE  PTCLDY    44  30  57 NE9       30.48R WCI  39
FTW-ALLIANCE   MOCLDY    39  31  72 NE10      30.47F WCI  32
FTW-SPINKS     CLEAR     43  32  65 N9        30.51R WCI  37
ARLINGTON      MOCLDY    44  30  57 NE8       30.49R WCI  39
GRAND PRAIRIE  CLEAR     43  34  70 N12       30.50  WCI  37
ADDISON        PTCLDY    41  28  60 N7        30.50  WCI  36
MESQUITE       CLEAR     39  30  70 N7        30.50R WCI  34
LANCASTER      PTCLDY    41  31  67 NE6       30.50R WCI  37
$$

TXZ091>094-102>105-117-120-121-131>134-301500-
NORTH CENTRAL TEXAS

CITY           SKY/WX    TMP DP  RH WIND       PRES   REMARKS
SHRMAN/DENISON PTCLDY    38  33  85 N3        30.52S
BRIDGEPORT     CLOUDY    40  32  75 NE6       30.51S WCI  35
DENTON         MOCLDY    38  31  76 NE9       30.50S WCI  31
MCKINNEY       PTCLDY    36  30  79 N6        30.50S WCI  31
ROCKWALL       PTCLDY    37  32  83 N6        30.49R WCI  32
TERRELL        PTCLDY    40  32  73 NE10      30.50R WCI  33
WAXAHACHIE     MOCLDY    41  32  71 NE7       30.50R WCI  36
GRANBURY       PTCLDY    41  33  71 N3        30.50R
$$

TXZ083>090-098>101-113>116-127>130-139>142-154-155-301500-
WESTERN NORTH TEXAS

CITY           SKY/WX    TMP DP  RH WIND       PRES   REMARKS
WICHITA FALLS  MOCLDY    38  32  79 NE7       30.51R WCI  33
WF-KICKAPOO    MOCLDY    33  26  75 N8        30.53R WCI  26
VERNON         MOCLDY    40  28  62 NE5       30.53R WCI  37
ABILENE        CLOUDY    42  29  59 NE7       30.47R WCI  38
ABILENE-DYESS  CLOUDY    42  31  65 NE6       30.46R WCI  38
MINERAL WELLS  MOCLDY    41  30  65 NE8       30.47S WCI  36
STEPHENVILLE   MOCLDY    41  31  68 NE8       30.48S WCI  35
COMANCHE       CLOUDY    42  32  68 NE5       30.47R WCI  39
BROWNWOOD      CLOUDY    43  32  65 NE7       30.48R WCI  39
BRADY          CLOUDY    46  36  66 NE7       30.42S
$$

TXZ143>147-156>162-174-175-301500-
CENTRAL TEXAS

CITY           SKY/WX    TMP DP  RH WIND       PRES   REMARKS
WACO           MOCLDY    44  33  65 N8        30.47R WCI  39
WACO-MCGREGOR  CLOUDY    45  28  53 NE12      30.48R WCI  39
CORSICANA      CLEAR     43  33  68 NE6       30.49R WCI  39
MEXIA          PTCLDY    42  33  70 NE7       30.45S WCI  38
HEARNE         CLOUDY    44  36  72 CALM      30.46S
TEMPLE         CLOUDY    45  30  57 N8        30.45R
KILLEEN        CLOUDY    45  32  60 NE14      30.45R WCI  38
KILLEEN-SKYLRK CLOUDY    46  28  49 NE9       30.44R
FORT HOOD      CLOUDY    45  31  58 NE10      30.45R
HAMILTON       CLOUDY    44  32  61 NE6       30.46R
LAMPASAS       CLOUDY    44  32  62 NE8       30.44R WCI  40
$$

TXZ095>097-106>112-122>126-135>138-148>153-164>167-301500-
EAST TEXAS

CITY           SKY/WX    TMP DP  RH WIND       PRES   REMARKS
PARIS          CLEAR     36  27  69 CALM      30.52R
MINEOLA        PTCLDY    34  32  93 CALM      30.52R
TYLER          PTCLDY    41  31  67 NE8       30.48R WCI  36
LONGVIEW       CLEAR     41  31  67 NE3       30.49R
PALESTINE      PTCLDY    43  32  67 NE8       30.48R WCI  38
NACOGDOCHES    CLEAR     43  28  56 E5        30.47R
LUFKIN         PTCLDY    46  31  55 NE10G20   30.45R
$$

SUPPLEMENTAL OBSERVATIONS (CENTRAL)

CITY           SKY/WX    TMP DP  RH WIND       PRES   REMARKS
$$

SUPPLEMENTAL OBSERVATIONS (WEST)

CITY           SKY/WX    TMP DP  RH WIND       PRES   REMARKS
$$

SUPPLEMENTAL OBSERVATIONS (EAST)

CITY           SKY/WX    TMP DP  RH WIND       PRES   REMARKS
$$

SUPPLEMENTAL OBSERVATIONS ARE A COLLECTION OF AUTOMATED INSTRUMENTS
THAT ARE MAINTAINED BY A VARIETY OF FEDERAL AND STATE AGENCIES.
CERTAIN ELEMENTS...SUCH AS HUMIDITY VALUES AND SUSTAINED WIND
SPEEDS...MAY BE APPROXIMATED.




USA.gov is the U.S. government's official web portal to all federal, state and local government web resources and services.